Location: Namasale
(1.5000°N, 32.6167°E)
Time: 18:55:58
(UTC+00:00)

Vanguard 1 Rocket - Pass Details

Date: 23 April 2021
Orbit: 652 x 4224 km, 34.3° (Epoch: 09 May)

Event Time Altitude Azimuth Distance (km) Brightness Sun altitude
Rises 06:16:37 0° 234° (SW) 8,202 11.8 36.5°
Reaches altitude 10° 06:22:49 10° 234° (SW) 6,847 11.5 38.0°
Maximum altitude 06:43:25 85° 322° (NW) 2,367 10.2 43.0°
Drops below altitude 10° 06:53:34 10° 50° (NE) 3,680 11.4 45.4°
Sets 06:55:52 0° 51° (NE) 4,357 11.5 46.0°
